Вернуться в каталог

USA 409

АктивенВоенныеVLEO
NORAD 61030·PAYLOAD·🇺🇸 United States

Запущен Sep 6, 2024 с Vandenberg Space Force Base

Loading…

Ближайшие Пролёты (ближайшие 24 часа)

TLE

УстаревшееSource: Mike McCants

Эпоха: Sep 9, 2026, 20:49 UTC

1 61030U 24160K   26252.86791069 0.00000000  00000-0  00000-0 0    09
2 61030  70.0200 159.2307 0002000 182.1649 177.8351 14.96713243    03

Отслеживайте USA 409 в реальном времени с AllMySat

Download on the App Store